Weather History for Knoxville, IA

Change the Weather History Date:

Tuesday, October 8, 2013

  Actual Average Record
Temperature  
Mean Temperature 62 °F -  
Max Temperature 75 °F 68 °F 84 °F (1980)
Min Temperature 50 °F 45 °F 26 °F (1976)
Degree Days  
Heating Degree Days 2    
Growing Degree Days 12 (Base 50)    
Moisture  
Dew Point 45 °F    
Average Humidity 56    
Maximum Humidity 76    
Minimum Humidity 31    
Precipitation  
Precipitation 0.00 in - - ()
Sea Level Pressure  
Sea Level Pressure 30.06 in    
Wind  
Wind Speed 10 mph (South)    
Max Wind Speed 22 mph    
Max Gust Speed 29 mph    
Visibility 10 miles    
Events      
Averages and records for this station are not official NWS values.
T = Trace of Precipitation, MM = Missing Value Source: NWS Daily Summary

Daily Weather History Graph

Daily Weather History Graph

Search for Another Location

Airport:

Trip Planner

Search our weather history database for the weather conditions in past years. The results will help you decide how hot, cold, wet, or windy it might be!

Date:

Astronomy

Oct. 08, 2013 Rise Set
Actual Time 7:16 AM CDT 6:42 PM CDT
Civil Twilight 6:49 AM CDT 7:09 PM CDT
Nautical Twilight 6:17 AM CDT 7:41 PM CDT
Astronomical Twilight 5:45 AM CDT 8:13 PM CDT
Moon 11:14 AM CDT (10/8) 9:16 PM CDT (10/8)
Length of Visible Light 12h 20m
Length of Day
11h 25m
Waxing Crescent, 16% of the Moon is Illuminated
Oct 8
Waxing Crescent
Oct 11
First Quarter
Oct 18
Full
Oct 26
Last Quarter
Nov 3
New

Hourly Weather History & Observations

Time (CDT) Temp. Dew Point Humidity Pressure Visibility Wind Dir Wind Speed Gust Speed Precip Events Conditions
12:15 AM 55.4 °F 44.6 °F 67% 30.06 in 10.0 mi SSW 8.1 mph - N/A   Clear
12:35 AM 55.4 °F 44.6 °F 67% 30.06 in 10.0 mi South 8.1 mph - N/A   Clear
12:55 AM 53.6 °F 44.6 °F 72% 30.06 in 10.0 mi SSW 8.1 mph - N/A   Clear
1:15 AM 53.6 °F 44.6 °F 72% 30.07 in 10.0 mi SSW 8.1 mph - N/A   Clear
1:35 AM 51.8 °F 44.6 °F 76% 30.07 in 10.0 mi South 8.1 mph - N/A   Clear
1:55 AM 53.6 °F 44.6 °F 72% 30.06 in 10.0 mi South 8.1 mph - N/A   Clear
2:15 AM 51.8 °F 44.6 °F 76% 30.07 in 10.0 mi South 6.9 mph - N/A   Clear
2:35 AM 51.8 °F 44.6 °F 76% 30.07 in 10.0 mi SSW 6.9 mph - N/A   Clear
2:55 AM 51.8 °F 44.6 °F 76% 30.06 in 10.0 mi South 8.1 mph - N/A   Clear
3:15 AM 51.8 °F 44.6 °F 76% 30.06 in 10.0 mi South 8.1 mph - N/A   Clear
3:35 AM 51.8 °F 44.6 °F 76% 30.07 in 10.0 mi South 9.2 mph - N/A   Clear
3:55 AM 51.8 °F 44.6 °F 76% 30.06 in 10.0 mi South 9.2 mph - N/A   Clear
4:15 AM 51.8 °F 44.6 °F 76% 30.07 in 10.0 mi South 8.1 mph - N/A   Clear
4:35 AM 51.8 °F 44.6 °F 76% 30.07 in 10.0 mi South 9.2 mph - N/A   Clear
4:55 AM 50.0 °F 42.8 °F 76% 30.07 in 10.0 mi South 9.2 mph - N/A   Clear
5:15 AM 50.0 °F 42.8 °F 76% 30.07 in 10.0 mi South 9.2 mph - N/A   Clear
5:35 AM 50.0 °F 42.8 °F 76% 30.07 in 10.0 mi South 9.2 mph - N/A   Clear
5:55 AM 50.0 °F 42.8 °F 76% 30.08 in 10.0 mi South 8.1 mph - N/A   Clear
6:15 AM 50.0 °F 42.8 °F 76% 30.08 in 10.0 mi South 9.2 mph - N/A   Clear
6:35 AM 50.0 °F 42.8 °F 76% 30.08 in 10.0 mi South 9.2 mph - N/A   Clear
6:55 AM 50.0 °F 42.8 °F 76% 30.09 in 10.0 mi South 10.4 mph - N/A   Clear
7:15 AM 50.0 °F 42.8 °F 76% 30.09 in 10.0 mi South 9.2 mph - N/A   Clear
7:35 AM 50.0 °F 42.8 °F 76% 30.09 in 10.0 mi South 9.2 mph - N/A   Clear
7:55 AM 50.0 °F 42.8 °F 76% 30.09 in 10.0 mi South 9.2 mph - N/A   Clear
8:15 AM 51.8 °F 44.6 °F 76% 30.09 in 10.0 mi South 9.2 mph - N/A   Clear
8:35 AM 53.6 °F 44.6 °F 72% 30.09 in 10.0 mi South 8.1 mph - N/A   Clear
8:55 AM 57.2 °F 44.6 °F 63% 30.09 in 10.0 mi South 10.4 mph - N/A   Clear
9:15 AM 59.0 °F 46.4 °F 63% 30.09 in 10.0 mi SSW 9.2 mph - N/A   Clear
9:35 AM 62.6 °F 44.6 °F 52% 30.09 in 10.0 mi SSW 10.4 mph 18.4 mph N/A   Clear
9:55 AM 64.4 °F 46.4 °F 52% 30.09 in 10.0 mi SSW 12.7 mph - N/A   Clear
10:15 AM 66.2 °F 46.4 °F 49% 30.09 in 10.0 mi South 13.8 mph 20.7 mph N/A   Clear
10:35 AM 66.2 °F 46.4 °F 49% 30.09 in 10.0 mi SSW 13.8 mph - N/A   Clear
10:55 AM 68.0 °F 44.6 °F 43% 30.08 in 10.0 mi South 16.1 mph 24.2 mph N/A   Clear
11:15 AM 69.8 °F 44.6 °F 40% 30.08 in 10.0 mi South 12.7 mph 18.4 mph N/A   Clear
11:35 AM 69.8 °F 44.6 °F 40% 30.08 in 10.0 mi South 19.6 mph - N/A   Clear
11:55 AM 71.6 °F 42.8 °F 35% 30.08 in 10.0 mi SSW 15.0 mph 25.3 mph N/A   Clear
12:15 PM 73.4 °F 44.6 °F 36% 30.08 in 10.0 mi SSW 13.8 mph 20.7 mph N/A   Clear
12:35 PM 73.4 °F 42.8 °F 33% 30.07 in 10.0 mi South 19.6 mph 26.5 mph N/A   Clear
12:55 PM 73.4 °F 44.6 °F 36% 30.06 in 10.0 mi South 16.1 mph 21.9 mph N/A   Clear
1:15 PM 75.2 °F 42.8 °F 31% 30.05 in 10.0 mi SSW 15.0 mph 25.3 mph N/A   Clear
1:35 PM 75.2 °F 42.8 °F 31% 30.05 in - South 13.8 mph 24.2 mph N/A   Clear
1:55 PM 75.2 °F 44.6 °F 34% 30.04 in 10.0 mi South 18.4 mph 26.5 mph N/A   Clear
2:15 PM 75.2 °F 44.6 °F 34% 30.04 in 10.0 mi South 11.5 mph 24.2 mph N/A   Clear
2:35 PM 75.2 °F 44.6 °F 34% 30.03 in 10.0 mi South 16.1 mph 23.0 mph N/A   Clear
2:55 PM 75.2 °F 44.6 °F 34% 30.02 in 10.0 mi South 20.7 mph - N/A   Clear
3:15 PM 75.2 °F 42.8 °F 31% 30.02 in 10.0 mi South 18.4 mph 26.5 mph N/A   Clear
3:35 PM 75.2 °F 42.8 °F 31% 30.02 in 10.0 mi South 21.9 mph 28.8 mph N/A   Clear
3:55 PM 75.2 °F 42.8 °F 31% 30.02 in 10.0 mi South 21.9 mph 27.6 mph N/A   Clear
4:15 PM 75.2 °F 42.8 °F 31% 30.02 in 10.0 mi South 16.1 mph 27.6 mph N/A   Clear
4:35 PM 75.2 °F 44.6 °F 34% 30.01 in 10.0 mi South 13.8 mph 24.2 mph N/A   Clear
4:55 PM 75.2 °F 44.6 °F 34% 30.01 in 10.0 mi South 16.1 mph 21.9 mph N/A   Clear
5:15 PM 73.4 °F 44.6 °F 36% 30.01 in 10.0 mi South 16.1 mph 24.2 mph N/A   Clear
5:35 PM 73.4 °F 44.6 °F 36% 30.01 in 10.0 mi South 9.2 mph 20.7 mph N/A   Clear
5:55 PM 71.6 °F 46.4 °F 41% 30.01 in 10.0 mi SSE 11.5 mph 19.6 mph N/A   Clear
6:15 PM 71.6 °F 44.6 °F 38% 30.01 in 10.0 mi South 12.7 mph 19.6 mph N/A   Clear
6:35 PM 68.0 °F 44.6 °F 43% 30.02 in 10.0 mi SSE 8.1 mph - N/A   Clear
6:55 PM 68.0 °F 46.4 °F 46% 30.02 in 10.0 mi SSE 10.4 mph - N/A   Clear
7:15 PM 66.2 °F 46.4 °F 49% 30.02 in 10.0 mi SSE 8.1 mph - N/A   Clear
7:35 PM 66.2 °F 46.4 °F 49% 30.02 in 10.0 mi SSE 8.1 mph - N/A   Clear
7:55 PM 64.4 °F 46.4 °F 52% 30.03 in 10.0 mi SSE 6.9 mph - N/A   Clear
8:15 PM 64.4 °F 46.4 °F 52% 30.03 in 10.0 mi SSE 8.1 mph - N/A   Clear
8:35 PM 62.6 °F 46.4 °F 55% 30.04 in 10.0 mi SSE 8.1 mph - N/A   Clear
8:55 PM 62.6 °F 46.4 °F 55% 30.04 in 10.0 mi SE 6.9 mph - N/A   Clear
9:15 PM 62.6 °F 46.4 °F 55% 30.04 in 10.0 mi SSE 8.1 mph - N/A   Clear
9:35 PM 62.6 °F 46.4 °F 55% 30.04 in 10.0 mi SSE 6.9 mph - N/A   Clear
9:55 PM 60.8 °F 46.4 °F 59% 30.05 in 10.0 mi South 8.1 mph - N/A   Clear
10:15 PM 60.8 °F 46.4 °F 59% 30.05 in 10.0 mi South 9.2 mph - N/A   Clear
10:35 PM 60.8 °F 46.4 °F 59% 30.05 in 10.0 mi South 9.2 mph - N/A   Clear
10:55 PM 60.8 °F 46.4 °F 59% 30.05 in 10.0 mi South 8.1 mph - N/A   Clear
11:15 PM 59.0 °F 46.4 °F 63% 30.05 in 10.0 mi SSE 6.9 mph - N/A   Clear
11:35 PM 59.0 °F 46.4 °F 63% 30.05 in 10.0 mi SSE 6.9 mph - N/A   Clear
11:55 PM 59.0 °F 48.2 °F 67% 30.05 in 10.0 mi SSE 6.9 mph - N/A   Clear